Location: Fort Wayne
(41.1310°N, 85.1290°W)
Time: 15:26:46
(UTC-05:00)

Daily predictions for brighter satellites

Satellite Brightness Start Highest point End
(mag) Time Altitude Azimuth Time Altitude Azimuth Time Altitude Azimuth
SL-8 R/B 4.2 17:33:51 10° W 17:38:30 52° NNW 17:43:11 10° ENE
Delta 2 Rocket 4.4 17:36:32 10° WSW 17:39:40 32° S 17:43:05 10° ESE
EP 1 4.4 17:39:38 10° SSW 17:42:13 55° ESE 17:44:46 10° NE
ATLAS 2AS CENTAUR R/B 3.7 17:35:41 10° NW 17:43:35 62° WSW 17:50:55 10° SSE
CSL-04 Debris 4.5 17:38:14 10° S 17:43:36 76° WSW 17:49:02 10° NNW
Cosmos 375 4.4 17:41:05 10° NW 17:45:32 87° NE 17:49:22 10° SE
Cosmos 1484 Rocket 4.2 17:43:28 10° ESE 17:45:47 16° ENE 17:48:06 10° NNE
Cosmos 494 Rocket 4.5 17:42:47 10° NNW 17:48:01 68° WSW 17:53:13 10° S
Cosmos 1844 Rocket 4.1 17:43:09 10° WSW 17:48:15 35° WNW 17:53:24 10° N
SMAP 3.2 17:47:15 10° SSE 17:51:46 54° ENE 17:56:19 10° N
CORIOLIS 4.3 17:50:36 10° SSE 17:55:51 55° ENE 18:01:07 10° N
Cosmos 1975 2.8 17:52:43 10° N 17:56:47 73° E 18:00:48 10° SSE
Cosmos 1812 3.5 17:59:56 10° SSW 18:03:42 54° W 18:07:30 10° N
Okean 1-7 Rocket 4.2 17:59:34 10° SSE 18:03:42 37° E 18:07:49 10° NNE
Tiangong 1 1.0 18:04:06 10° W 18:07:08 72° N 18:09:19 17° ENE
CZ-4 R/B 1.6 18:03:32 10° S 18:07:41 78° WSW 18:11:48 10° NNW
MOS 1 4.3 18:02:36 10° SSE 18:08:16 85° ENE 18:13:56 10° NNW
ISS -1.0 18:07:22 10° NW 18:09:07 14° N 18:10:47 10° NNE
SPOT 3 Rocket 3.5 18:06:57 10° SSE 18:12:08 89° ENE 18:17:19 10° NNW
COSMOS 2487 2.8 18:08:53 10° NNW 18:12:28 69° WSW 18:16:02 10° S
MSX 3.8 18:06:58 10° SSE 18:12:37 61° ENE 18:18:16 10° N
Meteor 2-21 4.4 18:10:46 10° N 18:16:57 78° E 18:23:03 10° SSE
AQUARIUS 4.3 18:13:05 10° S 18:17:34 81° WSW 18:22:06 10° NNW
Cosmos 1606 Rocket 4.4 18:19:21 10° NNE 18:23:16 28° ENE 18:27:08 10° SE
NOSS 2-1 (D) 3.3 18:22:18 10° SW 18:26:07 87° NW 18:29:25 16° NE
Cosmos 2297 3.8 18:20:41 10° SSW 18:26:19 77° WNW 18:31:58 10° NNE
NOSS 2-1 (C) 3.3 18:22:58 10° SW 18:26:48 89° NW 18:30:04 17° NE
COSMO-SKYMED 1 2.7 18:28:03 10° NNE 18:32:16 51° E 18:36:29 10° S
Meteor 2-14 Rocket 4.4 18:27:51 10° N 18:34:02 78° E 18:40:10 10° SSE
Cosmos 1190 Rocket 4.4 18:29:24 10° N 18:34:19 39° ENE 18:39:10 10° SE
Cosmos 2239 Rocket 4.4 18:28:13 10° N 18:34:21 61° E 18:40:24 10° SSE
CZ-3A R/B 4.4 18:28:34 10° W 18:34:32 48° N 18:55:09 18° ENE
Cosmos 2278 Rocket 3.7 18:29:49 10° WSW 18:34:53 33° WNW 18:39:58 10° N
Cosmos 921 Rocket 3.3 18:32:39 10° SSW 18:36:54 69° WNW 18:41:15 10° NNE
NOSS 7 (D) 4.3 18:33:57 10° SSW 18:37:27 67° ESE 18:38:44 34° NE
GEOS 3 Rocket 4.5 18:36:10 24° ENE 18:37:42 28° NE 18:42:00 10° NNW
Cosmos 1025 Rocket 3.1 18:34:17 10° S 18:38:34 57° E 18:42:27 13° NNE
Cosmos 1666 3.0 18:34:54 10° N 18:38:38 44° E 18:42:21 10° SSE
Abrixas 3.8 18:36:01 10° WNW 18:38:49 38° SW 18:41:15 12° SSE
IDEFIX/ARIANE 42P 3.6 18:38:37 10° S 18:43:37 48° W 18:48:38 10° NNW
Cosmos 1346 Rocket 4.3 18:40:59 10° SW 18:44:34 35° WNW 18:48:09 10° N
Thor Agena Rocket 4.5 18:39:49 10° N 18:44:50 49° WNW 18:49:53 10° SW
BREEZE-M DEB (TANK) 3.8 18:43:37 10° NW 18:45:01 17° N 18:45:01 17° N
NOSS 2-1 (E) 3.7 18:41:42 10° SW 18:45:32 63° NW 18:48:16 21° NNE
Cosmos 1821 Rocket 3.8 18:40:52 10° N 18:46:59 74° E 18:53:04 10° SSE
Cosmos 1833 Rocket 3.0 18:45:24 10° NNW 18:51:01 68° WSW 18:56:35 10° SSE
YAOGAN 1 4.4 18:51:49 10° SSW 18:55:43 32° W 18:59:38 10° NNW
Cosmos 1605 Rocket 4.1 18:51:38 10° N 18:57:44 50° ENE 19:03:41 10° SSE
CZ-3B DEB 3.6 18:53:56 10° W 18:58:27 38° N 19:04:32 20° NE
DMSP B5D1-3 4.4 18:54:32 14° NNE 18:59:02 73° ESE 19:04:08 10° S
Cosmos 2082 Rocket 3.2 18:54:56 10° NW 19:00:22 48° WSW 19:05:48 10° S
USA 234 3.6 18:56:14 21° NE 19:00:42 61° NW 19:07:06 10° WSW
Cosmos 1743 3.9 18:59:01 10° NNW 19:02:42 43° W 19:06:20 10° SSW
Meteor 1-28 Rocket 3.0 19:06:27 68° NE 19:06:50 77° ESE 19:10:36 10° S
BREEZE M DEB (TANK) 2.5 19:06:01 10° WSW 19:12:53 59° NNW 19:13:17 54° N
NOSS 3-4 (A) 3.9 19:12:49 10° NW 19:19:52 79° WSW 19:27:21 10° SSE
NOSS 3-4 (C) 3.9 19:12:54 10° NW 19:19:58 80° WSW 19:27:27 10° SSE
Cosmos 1484 Rocket 4.4 19:16:36 10° SSW 19:19:59 33° W 19:23:23 10° NNW
Delta 2 Rocket 4.4 19:18:23 10° WSW 19:21:44 32° S 19:21:53 32° S
Cosmos 407 Rocket 3.3 19:19:25 10° NNW 19:24:36 89° W 19:29:46 10° SSE
Cosmos 2056 Rocket 4.1 19:21:26 10° SSW 19:26:42 57° WNW 19:29:42 25° N
BREEZE M DEB (TANK) 3.7 19:25:08 10° NW 19:29:19 79° NNE 19:34:19 33° ESE
Okean 2 4.0 19:28:32 10° SSW 19:32:37 55° W 19:33:19 47° NW
Cosmos 1892 Rocket 4.0 19:30:57 10° SSW 19:35:14 59° W 19:35:54 52° NW
Cosmos 1727 Rocket 3.8 19:29:50 10° S 19:36:03 81° E 19:38:31 39° NNE
Cosmos 676 Rocket 3.9 19:30:53 10° NNW 19:35:31 70° N 19:35:31 70° N
Cosmos 2369 Rocket 2.4 19:32:14 10° S 19:36:50 53° SSE 19:36:50 53° SSE
NOAA 12 4.5 19:35:27 10° S 19:40:39 62° W 19:45:52 10° NNW
Tiangong 1 4.1 19:40:25 10° WNW 19:41:00 14° WNW 19:41:00 14° WNW
FALCON 9 R/B 3.4 19:26:54 10° W 19:47:00 58° SSW 19:49:07 45° SE
ATLAS 3B CENTAUR R/B 4.4 19:39:48 10° W 19:56:17 37° SSW 20:00:27 24° SSE
